Location: Aalen
(48.8330°N, 10.1000°E)
Time: 01:05:37
(UTC+02:00)

Transit 4A - Pass Details

Date: 09 August 2021
Orbit: 870 x 974 km, 66.8° (Epoch: 26 September)

Event Time Altitude Azimuth Distance (km) Brightness Sun altitude
Rises 08:57:11 0° 319° (NW) 3,482 10.5 26.9°
Reaches altitude 10° 08:59:52 10° 310° (NW) 2,549 9.8 27.3°
Maximum altitude 09:05:04 33° 248° (WSW) 1,450 8.8 28.2°
Drops below altitude 10° 09:10:21 10° 186° (S) 2,589 10.4 29.0°
Sets 09:13:06 0° 177° (S) 3,543 11.1 29.5°
